Weather in Anikino

Russia / Omsk Oblast     56°31′49″N   73°54′09″E
temp.,
°C
wind,
m/s
gust,
m/s
humid.,
%
clouds,
%
prec.,
mm/h
press.,
hPa
HPBL,
m
21 june, mon
mon2100:00+7nw6129689 5.4 998443
03:00+6nw61294100 0.1 998463
06:00+10ne71396100 2.8 999834
09:00+10ne81789100 1.1 10031002
12:00+16ne81467100 1.2 10051924
15:00+15nne1013629 0.2 10081189
18:00+15nne8117659 0.8 10101101
21:00+12nnw5117799 0.4 1012339
22 june, tue
tue2200:00+12n6125759 0.4 1013568
03:00+7n5118476 0.0 1014255
06:00+8nnw410905 0.0 1015309
09:00+12nnw567114 0.0 1015782
12:00+12nne677283 0.6 1016962
15:00+15nnw3650100 0.1 10151945
18:00+14n3554100 0.2 10151421
21:00+11n2376100 0.3 101544
23 june, wed
wed2300:00+8nne1179100 0.3 101510
03:00+8nne337898 0.0 101460
06:00+7ne2488100 0.0 1014126
09:00+11nne457493 0.3 1014812
12:00+13nne466169 1.3 10131725
15:00+15n575059 0.1 10132005
18:00+13n556457 0.4 10131174
21:00+10n388184 0.4 1013194
24 june, thu
thu2400:00+8nnw498590 0.4 1013246
03:00+5nnw499464 0.0 1013183
06:00+5nnw48887 0.0 1013185
09:00+11n576973 0.0 1013580
12:00+15n455560 0.1 10121780
15:00+15n555253 0.1 10131178
18:00+15n565566 0.1 10131356
21:00+11nnw48765 0.0 1014169
25 june, fri
fri2500:00+10nw367192 0.0 1014135
03:00+7n338823 0.0 101425
06:00+9nnw3781100 0.0 1014206
09:00+11nw2471100 0.0 1014258
12:00+15nnw456495 0.0 10131078
15:00+15nnw3565100 0.1 10131097
18:00+17nnw346018 0.1 10121054
21:00+14wnw227444 0.1 101233